        Date        , GPU Clock [MHz] , Memory Clock [MHz] , GPU Temperature [�C] , GPU Temperature (Hot Spot) [�C] , Fan Speed (%) [%] , Fan Speed (RPM) [RPM] , GPU Load [%] , Memory Controller Load [%] , Memory Used (Dedicated) [MB] , Memory Used (Dynamic) [MB] , Board Power Draw [W] , GPU Voltage [V] , CPU Temperature [�C] , System Memory Used [MB] ,
2023-12-18 08:37:20 ,          94.0   ,            110.0   ,               32.0   ,                          39.0   ,               0   ,                   0   ,          5   ,                        2   ,                       1133   ,                      154   ,               54.0   ,         0.682   ,               44.0   ,                 11024   ,
2023-12-18 08:37:21 ,         110.0   ,            960.0   ,               32.0   ,                          40.0   ,               0   ,                   0   ,          7   ,                        2   ,                       1133   ,                      154   ,               54.0   ,         0.686   ,               42.0   ,                 11040   ,
2023-12-18 08:37:22 ,          22.0   ,           1422.0   ,               32.0   ,                          41.0   ,               0   ,                   0   ,          2   ,                        0   ,                       1153   ,                      168   ,               54.0   ,         0.146   ,               45.0   ,                 11069   ,
2023-12-18 08:37:23 ,         105.0   ,           1147.0   ,               32.0   ,                          40.0   ,               0   ,                   0   ,          8   ,                        1   ,                       1161   ,                      169   ,               54.0   ,         0.344   ,               48.0   ,                 11094   ,
2023-12-18 08:37:24 ,         167.0   ,           1538.0   ,               33.0   ,                          41.0   ,               0   ,                   0   ,         12   ,                        2   ,                       1243   ,                      170   ,               54.0   ,         0.577   ,               44.0   ,                 11161   ,
2023-12-18 08:37:25 ,          91.0   ,           1538.0   ,               33.0   ,                          41.0   ,               0   ,                   0   ,          6   ,                        0   ,                       1236   ,                      162   ,               54.0   ,         0.438   ,               44.0   ,                 11201   ,
2023-12-18 08:37:26 ,         218.0   ,           1538.0   ,               33.0   ,                          41.0   ,               0   ,                   0   ,         15   ,                        3   ,                       1246   ,                      162   ,               54.0   ,         0.687   ,               45.0   ,                 11193   ,
2023-12-18 08:37:27 ,         185.0   ,           1538.0   ,               33.0   ,                          41.0   ,               0   ,                   0   ,         12   ,                        0   ,                       1246   ,                      162   ,               54.0   ,         0.682   ,               44.0   ,                 11192   ,
2023-12-18 08:37:28 ,          32.0   ,           1041.0   ,               33.0   ,                          41.0   ,               0   ,                   0   ,          2   ,                        0   ,                       1246   ,                      162   ,               54.0   ,         0.385   ,               44.0   ,                 11190   ,
2023-12-18 08:37:29 ,           7.0   ,            536.0   ,               33.0   ,                          40.0   ,               0   ,                   0   ,          0   ,                        1   ,                       1246   ,                      162   ,               54.0   ,         0.185   ,               40.0   ,                 11173   ,
2023-12-18 08:37:30 ,          10.0   ,            107.0   ,               33.0   ,                          39.0   ,               0   ,                   0   ,          0   ,                        2   ,                       1246   ,                      162   ,               54.0   ,         0.246   ,               41.0   ,                 11171   ,
2023-12-18 08:37:31 ,           9.0   ,            103.0   ,               33.0   ,                          39.0   ,               0   ,                   0   ,          0   ,                        2   ,                       1246   ,                      162   ,               54.0   ,         0.257   ,               46.0   ,                 11116   ,
2023-12-18 08:37:32 ,          36.0   ,            113.0   ,               33.0   ,                          39.0   ,               0   ,                   0   ,          2   ,                        2   ,                       1236   ,                      162   ,               54.0   ,         0.329   ,               45.0   ,                 11134   ,
2023-12-18 08:37:33 ,        1291.0   ,           1417.0   ,               33.0   ,                          41.0   ,               0   ,                   0   ,         16   ,                        2   ,                       1261   ,                      177   ,               54.0   ,         0.673   ,               46.0   ,                 11177   ,
2023-12-18 08:37:34 ,        1322.0   ,           1538.0   ,               33.0   ,                          41.0   ,               0   ,                   0   ,         18   ,                        3   ,                       1261   ,                      177   ,               54.0   ,         0.688   ,               44.0   ,                 11175   ,
2023-12-18 08:37:35 ,         142.0   ,           1538.0   ,               33.0   ,                          41.0   ,               0   ,                   0   ,          9   ,                        0   ,                       1261   ,                      177   ,               54.0   ,         0.665   ,               53.0   ,                 11174   ,
2023-12-18 08:37:36 ,           2.0   ,           1095.0   ,               33.0   ,                          41.0   ,               0   ,                   0   ,          0   ,                        0   ,                       1261   ,                      177   ,               54.0   ,         0.104   ,               43.0   ,                 11176   ,
2023-12-18 08:37:37 ,          87.0   ,           1098.0   ,               33.0   ,                          41.0   ,               0   ,                   0   ,          6   ,                        1   ,                       1261   ,                      177   ,               54.0   ,         0.422   ,               44.0   ,                 11183   ,
2023-12-18 08:37:38 ,          81.0   ,           1538.0   ,               33.0   ,                          41.0   ,               0   ,                   0   ,          5   ,                        1   ,                       1261   ,                      177   ,               54.0   ,         0.578   ,               43.0   ,                 11168   ,
2023-12-18 08:37:39 ,          10.0   ,            909.0   ,               33.0   ,                          41.0   ,               0   ,                   0   ,          0   ,                        1   ,                       1251   ,                      177   ,               54.0   ,         0.378   ,               44.0   ,                 11161   ,
2023-12-18 08:37:40 ,         176.0   ,           1383.0   ,               33.0   ,                          41.0   ,               0   ,                   0   ,         12   ,                        1   ,                       1245   ,                      177   ,               54.0   ,         0.649   ,               44.0   ,                 11172   ,
2023-12-18 08:37:41 ,           0.0   ,            909.0   ,               33.0   ,                          41.0   ,               0   ,                   0   ,          0   ,                        1   ,                       1245   ,                      177   ,               54.0   ,         0.064   ,               44.0   ,                 11159   ,
2023-12-18 08:37:42 ,           1.0   ,            841.0   ,               33.0   ,                          41.0   ,               0   ,                   0   ,          0   ,                        0   ,                       1238   ,                      177   ,               54.0   ,         0.104   ,               44.0   ,                 11153   ,
2023-12-18 08:37:43 ,           0.0   ,            108.0   ,               33.0   ,                          40.0   ,               0   ,                   0   ,          0   ,                        3   ,                       1238   ,                      177   ,               54.0   ,         0.065   ,               43.0   ,                 11161   ,
2023-12-18 08:37:44 ,           3.0   ,            114.0   ,               33.0   ,                          40.0   ,               0   ,                   0   ,          0   ,                        2   ,                       1242   ,                      177   ,               54.0   ,         0.106   ,               43.0   ,                 11177   ,
2023-12-18 08:37:45 ,        1325.0   ,           1538.0   ,               33.0   ,                          41.0   ,               0   ,                   0   ,         16   ,                        3   ,                       1239   ,                      177   ,               54.0   ,         0.687   ,               41.0   ,                 11194   ,
2023-12-18 08:37:46 ,         217.0   ,           1538.0   ,               33.0   ,                          42.0   ,               0   ,                   0   ,         15   ,                        2   ,                       1239   ,                      177   ,               54.0   ,         0.687   ,               42.0   ,                 11199   ,
2023-12-18 08:37:47 ,          13.0   ,            909.0   ,               33.0   ,                          41.0   ,               0   ,                   0   ,          0   ,                        1   ,                       1239   ,                      177   ,               54.0   ,         0.331   ,               44.0   ,                 11206   ,
2023-12-18 08:37:48 ,         113.0   ,            909.0   ,               33.0   ,                          41.0   ,               0   ,                   0   ,          7   ,                        1   ,                       1239   ,                      177   ,               54.0   ,         0.550   ,               42.0   ,                 11173   ,
2023-12-18 08:37:49 ,          61.0   ,            111.0   ,               33.0   ,                          40.0   ,               0   ,                   0   ,          7   ,                        3   ,                       1239   ,                      177   ,               54.0   ,         0.403   ,               38.0   ,                 11184   ,
2023-12-18 08:37:50 ,          35.0   ,            109.0   ,               33.0   ,                          40.0   ,               0   ,                   0   ,          2   ,                        3   ,                       1232   ,                      177   ,               54.0   ,         0.516   ,               41.0   ,                 11185   ,
2023-12-18 08:37:51 ,           0.0   ,             83.0   ,               33.0   ,                          40.0   ,               0   ,                   0   ,          0   ,                        2   ,                       1232   ,                      177   ,               54.0   ,         0.065   ,               39.0   ,                 11155   ,
2023-12-18 08:37:52 ,         174.0   ,           1538.0   ,               33.0   ,                          42.0   ,               0   ,                   0   ,         11   ,                        0   ,                       1232   ,                      177   ,               54.0   ,         0.686   ,               44.0   ,                 11154   ,
2023-12-18 08:37:53 ,           0.0   ,            909.0   ,               33.0   ,                          41.0   ,               0   ,                   0   ,          0   ,                        0   ,                       1232   ,                      177   ,               54.0   ,         0.065   ,               38.0   ,                 11154   ,
2023-12-18 08:37:54 ,          17.0   ,            909.0   ,               33.0   ,                          41.0   ,               0   ,                   0   ,          1   ,                        1   ,                       1232   ,                      177   ,               54.0   ,         0.260   ,               41.0   ,                 11154   ,
2023-12-18 08:37:55 ,          74.0   ,            909.0   ,               33.0   ,                          41.0   ,               0   ,                   0   ,          4   ,                        1   ,                       1233   ,                      177   ,               54.0   ,         0.584   ,               38.0   ,                 11153   ,
2023-12-18 08:37:56 ,         133.0   ,            909.0   ,               33.0   ,                          41.0   ,               0   ,                   0   ,          8   ,                        1   ,                       1317   ,                      186   ,               54.0   ,         0.687   ,               61.0   ,                 11936   ,
2023-12-18 08:37:57 ,        1313.0   ,            909.0   ,               34.0   ,                          41.0   ,               0   ,                   0   ,         21   ,                        1   ,                       1232   ,                      177   ,               54.0   ,         0.691   ,               44.0   ,                 11187   ,
2023-12-18 08:37:58 ,          13.0   ,           1538.0   ,               33.0   ,                          42.0   ,               0   ,                   0   ,          1   ,                        0   ,                       1233   ,                      177   ,               54.0   ,         0.251   ,               43.0   ,                 11209   ,
2023-12-18 08:37:59 ,          21.0   ,            909.0   ,               33.0   ,                          41.0   ,               0   ,                   0   ,          2   ,                        1   ,                       1233   ,                      177   ,               54.0   ,         0.425   ,               41.0   ,                 11190   ,
2023-12-18 08:38:00 ,           5.0   ,            909.0   ,               33.0   ,                          41.0   ,               0   ,                   0   ,          0   ,                        0   ,                       1233   ,                      177   ,               54.0   ,         0.191   ,               41.0   ,                 11199   ,
2023-12-18 08:38:01 ,           0.0   ,            909.0   ,               33.0   ,                          41.0   ,               0   ,                   0   ,          0   ,                        0   ,                       1233   ,                      177   ,               54.0   ,         0.065   ,               39.0   ,                 11190   ,
2023-12-18 08:38:02 ,           1.0   ,            909.0   ,               33.0   ,                          41.0   ,               0   ,                   0   ,          0   ,                        0   ,                       1233   ,                      176   ,               54.0   ,         0.110   ,               41.0   ,                 11199   ,
2023-12-18 08:38:03 ,          30.0   ,            909.0   ,               33.0   ,                          41.0   ,               0   ,                   0   ,          1   ,                        1   ,                       1233   ,                      176   ,               54.0   ,         0.555   ,               38.0   ,                 11187   ,
2023-12-18 08:38:04 ,           0.0   ,            105.0   ,               33.0   ,                          40.0   ,               0   ,                   0   ,          0   ,                        2   ,                       1233   ,                      176   ,               54.0   ,         0.064   ,               44.0   ,                 11200   ,
2023-12-18 08:38:05 ,           0.0   ,           1538.0   ,               33.0   ,                          42.0   ,               0   ,                   0   ,          0   ,                        0   ,                       1233   ,                      176   ,               54.0   ,         0.065   ,               40.0   ,                 11200   ,
2023-12-18 08:38:06 ,          53.0   ,            909.0   ,               34.0   ,                          41.0   ,               0   ,                   0   ,          3   ,                        1   ,                       1232   ,                      176   ,               54.0   ,         0.504   ,               43.0   ,                 11204   ,
2023-12-18 08:38:07 ,           0.0   ,           1538.0   ,               33.0   ,                          42.0   ,               0   ,                   0   ,          0   ,                        0   ,                       1232   ,                      176   ,               54.0   ,         0.065   ,               39.0   ,                 11193   ,
2023-12-18 08:38:08 ,           0.0   ,            909.0   ,               34.0   ,                          41.0   ,               0   ,                   0   ,          0   ,                        0   ,                       1232   ,                      176   ,               54.0   ,         0.065   ,               40.0   ,                 11199   ,
2023-12-18 08:38:09 ,           0.0   ,            909.0   ,               34.0   ,                          41.0   ,               0   ,                   0   ,          0   ,                        0   ,                       1232   ,                      176   ,               54.0   ,         0.064   ,               39.0   ,                 11200   ,
2023-12-18 08:38:10 ,           0.0   ,            122.0   ,               33.0   ,                          40.0   ,               0   ,                   0   ,          0   ,                        3   ,                       1241   ,                      176   ,               54.0   ,         0.064   ,               41.0   ,                 11189   ,
2023-12-18 08:38:11 ,           8.0   ,             96.0   ,               33.0   ,                          40.0   ,               0   ,                   0   ,          0   ,                        3   ,                       1239   ,                      176   ,               54.0   ,         0.250   ,               39.0   ,                 11198   ,
2023-12-18 08:38:12 ,           0.0   ,            161.0   ,               33.0   ,                          40.0   ,               0   ,                   0   ,          0   ,                        2   ,                       1239   ,                      176   ,               54.0   ,         0.065   ,               43.0   ,                 11190   ,
2023-12-18 08:38:13 ,           0.0   ,             78.0   ,               33.0   ,                          40.0   ,               0   ,                 526   ,          0   ,                        1   ,                       1239   ,                      176   ,               54.0   ,         0.064   ,               38.0   ,                 11205   ,
2023-12-18 08:38:14 ,          25.0   ,             93.0   ,               33.0   ,                          40.0   ,               0   ,                 179   ,          2   ,                        2   ,                       1239   ,                      176   ,               54.0   ,         0.244   ,               41.0   ,                 11202   ,
2023-12-18 08:38:15 ,           0.0   ,             99.0   ,               33.0   ,                          40.0   ,               0   ,                   0   ,          0   ,                        1   ,                       1239   ,                      176   ,               54.0   ,         0.064   ,               38.0   ,                 11202   ,
2023-12-18 08:38:16 ,          51.0   ,            111.0   ,               34.0   ,                          40.0   ,               0   ,                   0   ,          3   ,                        2   ,                       1239   ,                      176   ,               54.0   ,         0.427   ,               40.0   ,                 11202   ,
2023-12-18 08:38:17 ,           0.0   ,             84.0   ,               33.0   ,                          40.0   ,               0   ,                 458   ,          0   ,                        1   ,                       1239   ,                      176   ,               54.0   ,         0.064   ,               39.0   ,                 11204   ,
2023-12-18 08:38:18 ,          15.0   ,             90.0   ,               33.0   ,                          40.0   ,               0   ,                   0   ,          1   ,                        2   ,                       1239   ,                      176   ,               54.0   ,         0.286   ,               41.0   ,                 11206   ,
2023-12-18 08:38:19 ,          16.0   ,             94.0   ,               33.0   ,                          40.0   ,               0   ,                 117   ,          2   ,                        2   ,                       1239   ,                      176   ,               54.0   ,         0.246   ,               39.0   ,                 11199   ,
2023-12-18 08:38:20 ,          14.0   ,             92.0   ,               33.0   ,                          40.0   ,               0   ,                   0   ,          1   ,                        2   ,                       1239   ,                      176   ,               54.0   ,         0.224   ,               41.0   ,                 11188   ,
2023-12-18 08:38:21 ,           0.0   ,             80.0   ,               33.0   ,                          40.0   ,               0   ,                   0   ,          0   ,                        1   ,                       1239   ,                      176   ,               54.0   ,         0.064   ,               38.0   ,                 11192   ,
2023-12-18 08:38:22 ,          12.0   ,             88.0   ,               33.0   ,                          40.0   ,               0   ,                   0   ,          1   ,                        1   ,                       1239   ,                      176   ,               54.0   ,         0.226   ,               39.0   ,                 11191   ,
2023-12-18 08:38:23 ,           0.0   ,             79.0   ,               33.0   ,                          40.0   ,               0   ,                   0   ,          0   ,                        1   ,                       1239   ,                      176   ,               54.0   ,         0.064   ,               38.0   ,                 11192   ,
2023-12-18 08:38:24 ,          11.0   ,             88.0   ,               33.0   ,                          40.0   ,               0   ,                   0   ,          1   ,                        2   ,                       1239   ,                      176   ,               54.0   ,         0.207   ,               40.0   ,                 11194   ,
2023-12-18 08:38:25 ,           0.0   ,             85.0   ,               33.0   ,                          40.0   ,               0   ,                 237   ,          0   ,                        1   ,                       1239   ,                      176   ,               54.0   ,         0.064   ,               38.0   ,                 11181   ,